[[{"header":{"parameterUnit":"m.s-1","parameterCategory":1,"la1":30.2991,"la2":30.254,"lo1":-89.0895,"lo2":-89.0444,"dy":0.0017,"dx":0.0017,"nx":28,"ny":28,"refTime":"2025-02-07T09:00:00:Z","depth":0,"parameterNumber":2,"parameterNumberName":"U-component_of_WINDS"},"data":[0,0,0,0,0,0,0,0,0,0,0,0,0,0,0,0,0,0,0,0,0,0,0,0,0,0,0,0,0,0,0,0,0,0,0,0,0,0,0,0,0,0,0,0,0,0,0,0,0,0,0,0,0,0,0,0,0,0,-1.3148,-1.3149,0,-1.3157,-1.3157,-1.3157,-1.3154,-1.3154,-1.3154,-1.3154,-1.3161,-1.3162,-1.3162,0,0,0,0,0,0,0,0,0,0,0,0,0,-1.3131,-1.3131,-1.3148,-1.3149,-1.3149,-1.3156,-1.3157,-1.3157,-1.3154,-1.3154,-1.3154,-1.3154,-1.3161,-1.3162,-1.3162,0,0,0,0,0,0,0,0,0,0,0,0,0,-1.3138,-1.3131,-1.3148,-1.3148,-1.3148,-1.3156,-1.3157,-1.3157,-1.3154,-1.3154,-1.3154,-1.3153,-1.3161,-1.3161,-1.3162,-1.317,0,0,-1.3164,-1.3164,0,0,0,0,0,0,0,0,-1.3138,-1.3139,-1.3148,-1.3148,-1.3148,-1.3154,-1.3153,-1.3161,-1.3154,-1.3152,-1.3154,-1.3153,-1.3159,-1.316,-1.3162,-1.3171,-1.3171,-1.3164,-1.3164,-1.3164,-1.3164,0,0,0,0,0,0,0,-1.3138,-1.3139,-1.3152,-1.3148,-1.3149,-1.3148,-1.3149,-1.3155,-1.3157,-1.3152,-1.3152,-1.3153,-1.3159,-1.3161,-1.3162,-1.3171,-1.3164,-1.3164,-1.3165,-1.3165,-1.3188,-1.3188,0,0,0,0,0,0,-1.3137,-1.3138,-1.3151,-1.3152,-1.3143,-1.3148,-1.3149,-1.3153,-1.3157,-1.3157,-1.3153,-1.3153,-1.316,-1.3161,-1.3162,-1.3172,-1.3164,-1.3165,-1.3165,-1.3187,-1.3188,-1.3188,0,0,0,0,0,0,-1.3137,-1.3138,-1.3151,-1.3145,-1.3147,-1.3149,-1.3153,-1.3153,-1.3155,-1.3158,-1.3158,-1.3155,-1.316,-1.3161,-1.3168,-1.3172,-1.3165,-1.3166,-1.3187,-1.3188,-1.3188,-1.3192,0,0,0,0,0,0,-1.3136,-1.3138,-1.3141,-1.3145,-1.3147,-1.3157,-1.3153,-1.3153,-1.3156,-1.3156,-1.3159,-1.316,-1.316,-1.3168,-1.3169,-1.3173,-1.3166,-1.3187,-1.3187,-1.3188,-1.3192,-1.3193,-1.3194,0,0,0,0,0,-1.3135,-1.3142,-1.3141,-1.3143,-1.3151,-1.3158,-1.3159,-1.3159,-1.3156,-1.316,-1.3161,-1.316,-1.3172,-1.3168,-1.317,-1.3174,-1.3186,-1.3187,-1.3188,-1.3191,-1.3193,-1.3194,0,0,0,0,0,0,-1.3138,-1.3142,-1.3142,-1.315,-1.3153,-1.3157,-1.3161,-1.316,-1.3164,-1.3164,-1.3164,-1.3165,-1.3172,-1.3174,-1.317,-1.3183,-1.3179,-1.318,-1.3181,-1.3182,-1.3183,-1.3182,-1.3166,0,0,0,0,0,-1.314,-1.3145,-1.3148,-1.3155,-1.3157,-1.3159,-1.3162,-1.3162,-1.3165,-1.3167,-1.3169,-1.3172,-1.3177,-1.318,-1.3184,-1.3192,-1.3193,-1.3196,-1.3197,-1.3198,-1.3198,-1.3203,-1.3204,-1.319,-1.319,-1.319,0,0,-1.3143,-1.3146,-1.3149,-1.3156,-1.3158,-1.3163,-1.316,-1.3165,-1.3169,-1.3167,-1.3174,-1.3176,-1.318,-1.3187,-1.3191,-1.3189,-1.3202,-1.3199,-1.3199,-1.3199,-1.3203,-1.3205,-1.3206,-1.3191,-1.3191,-1.319,0,0,-1.3151,-1.3154,-1.316,-1.3163,-1.3167,-1.3169,-1.317,-1.3174,-1.3175,-1.3182,-1.3181,-1.3185,-1.3193,-1.3196,-1.3198,-1.3208,-1.3207,-1.321,-1.3215,-1.3219,-1.322,-1.3221,-1.3224,-1.3225,-1.3211,-1.3211,-1.3211,0,-1.3154,-1.3162,-1.3163,-1.3169,-1.3172,-1.3171,-1.3177,-1.318,-1.3185,-1.3187,-1.3185,-1.3195,-1.3198,-1.3206,-1.3208,-1.321,-1.3212,-1.3209,-1.322,-1.3221,-1.3222,-1.3225,-1.3226,-1.3211,-1.3211,-1.3211,-1.3211,0,-1.3166,-1.3171,-1.3175,-1.3181,-1.3184,-1.319,-1.3192,-1.3195,-1.3196,-1.3197,-1.3204,-1.3207,-1.3212,-1.3214,-1.3214,-1.3223,-1.3221,-1.322,-1.3216,-1.3223,-1.3226,-1.3227,-1.3211,-1.3211,-1.3211,-1.3211,0,0,-1.3175,-1.3182,-1.3183,-1.3186,-1.3191,-1.3195,-1.3201,-1.3206,-1.3208,-1.3213,-1.3217,-1.3224,-1.3223,-1.3226,-1.3226,-1.323,-1.3237,-1.3228,-1.3228,-1.3229,-1.3246,-1.3247,-1.3248,-1.3237,-1.3237,-1.3237,-1.3246,0,-1.3183,-1.3194,-1.3195,-1.3204,-1.3209,-1.3209,-1.3214,-1.3217,-1.3219,-1.3223,-1.3225,-1.323,-1.3228,-1.323,-1.3234,-1.3235,-1.3241,-1.3235,-1.3241,-1.3241,-1.3239,-1.325,-1.3251,-1.3259,-1.3247,-1.3247,-1.3247,0,-1.3194,-1.3199,-1.3208,-1.3213,-1.3215,-1.3219,-1.3224,-1.3229,-1.3233,-1.3234,-1.3237,-1.3237,-1.3243,-1.324,-1.3248,-1.3244,-1.3246,-1.3248,-1.3248,-1.3248,-1.3244,-1.325,-1.3262,-1.3262,-1.3249,-1.3249,-1.3249,0,-1.32,-1.3208,-1.3215,-1.3217,-1.3223,-1.3226,-1.3228,-1.3232,-1.3235,-1.324,-1.3242,-1.3247,-1.3249,-1.3253,-1.3255,-1.3252,-1.3262,-1.3259,-1.3263,-1.3263,-1.3265,-1.3264,-1.3276,-1.3267,-1.3267,-1.3267,-1.3267,0,-1.3208,-1.3214,-1.3217,-1.3222,-1.3228,-1.323,-1.3236,-1.3238,-1.3242,-1.3247,-1.3247,-1.3251,-1.3253,-1.3257,-1.3258,-1.3265,-1.3266,-1.3267,-1.3267,-1.3267,-1.3266,-1.3268,-1.3267,-1.3268,-1.3268,-1.3268,-1.3268,0,-1.3215,-1.3218,-1.3225,-1.323,-1.3231,-1.3236,-1.324,-1.3244,-1.3246,-1.3252,-1.3253,-1.3256,-1.3261,-1.3263,-1.327,-1.3271,-1.3278,-1.3278,-1.3276,-1.3276,-1.328,-1.3279,-1.3293,-1.3294,-1.3285,-1.3285,-1.3285,0,-1.322,-1.3225,-1.323,-1.3233,-1.3236,-1.3241,-1.3244,-1.3246,-1.325,-1.3255,-1.3258,-1.3264,-1.3268,-1.3276,-1.3279,-1.3284,-1.3284,-1.3288,-1.3284,-1.3284,-1.3283,-1.3283,-1.3283,-1.3289,-1.3289,-1.3289,-1.3289,0,-1.3229,-1.323,-1.3235,-1.324,-1.3244,-1.3248,-1.3252,-1.3255,-1.3258,-1.3262,-1.3267,-1.3271,-1.3277,-1.3283,-1.3288,-1.329,-1.329,-1.329,-1.3291,-1.329,-1.3289,-1.329,-1.3278,-1.329,-1.329,-1.3289,-1.3289,-1.3289,-1.3234,-1.3238,-1.3243,-1.3248,-1.3252,-1.3256,-1.326,-1.3263,-1.3267,-1.3273,-1.3274,-1.328,-1.3284,-1.3291,-1.3294,-1.3299,-1.3297,-1.3299,-1.3299,-1.33,-1.33,-1.3289,-1.33,-1.33,-1.3299,-1.3299,-1.3299,0,-1.3243,-1.3246,-1.3251,-1.3257,-1.3261,-1.3261,-1.3266,-1.3269,-1.3274,-1.3279,-1.3283,-1.3289,-1.3295,-1.3298,-1.3303,-1.3306,-1.3306,-1.3308,-1.3307,-1.3308,-1.3301,-1.3299,-1.3308,-1.3308,-1.3308,-1.3308,-1.3308,-1.3308,-1.3247,-1.3254,-1.3256,-1.3264,-1.3267,-1.3273,-1.3276,-1.328,-1.3283,-1.329,-1.3295,-1.3297,-1.3301,-1.3306,-1.3311,-1.3312,-1.3314,-1.3315,-1.3316,-1.3309,-1.3308,-1.3307,-1.3306,-1.3316,-1.3316,-1.3322,-1.3322,-1.3322]},{"header":{"parameterUnit":"m.s-1","parameterCategory":1,"la1":30.2991,"la2":30.254,"lo1":-89.0895,"lo2":-89.0444,"dy":0.0017,"dx":0.0017,"nx":28,"ny":28,"refTime":"2025-02-07T09:00:00:Z","depth":0,"parameterNumber":3,"parameterNumberName":"V-component_of_WINDS"},"data":[0,0,0,0,0,0,0,0,0,0,0,0,0,0,0,0,0,0,0,0,0,0,0,0,0,0,0,0,0,0,0,0,0,0,0,0,0,0,0,0,0,0,0,0,0,0,0,0,0,0,0,0,0,0,0,0,0,0,3.5106,3.5107,0,3.5182,3.5183,3.5183,3.5183,3.5182,3.5181,3.518,3.5253,3.5256,3.5259,0,0,0,0,0,0,0,0,0,0,0,0,0,3.4956,3.4959,3.5106,3.5107,3.5108,3.5182,3.5183,3.5184,3.5183,3.5182,3.518,3.5179,3.5252,3.5256,3.5259,0,0,0,0,0,0,0,0,0,0,0,0,0,3.5025,3.496,3.5106,3.5116,3.5118,3.5181,3.5183,3.5184,3.5183,3.5181,3.518,3.5179,3.5251,3.5255,3.526,3.5316,0,0,3.5273,3.5275,0,0,0,0,0,0,0,0,3.5021,3.5031,3.5114,3.5116,3.5118,3.5171,3.5157,3.5228,3.5183,3.5158,3.518,3.5178,3.5227,3.5233,3.5251,3.532,3.5323,3.5273,3.5276,3.5278,3.5279,0,0,0,0,0,0,0,3.5017,3.5027,3.5136,3.5115,3.5117,3.5116,3.5124,3.517,3.52,3.516,3.516,3.517,3.5228,3.5246,3.5252,3.5324,3.5273,3.5277,3.528,3.5281,3.5445,3.5446,0,0,0,0,0,0,3.501,3.5023,3.5133,3.5138,3.5065,3.512,3.5129,3.5155,3.5199,3.5205,3.5171,3.5169,3.524,3.5247,3.5255,3.5326,3.5278,3.5282,3.5284,3.5443,3.5445,3.5447,0,0,0,0,0,0,3.5007,3.502,3.513,3.5081,3.5095,3.5124,3.5154,3.5158,3.5177,3.5207,3.5212,3.5185,3.5239,3.5249,3.5302,3.5328,3.5284,3.5288,3.5441,3.5444,3.5446,3.5466,0,0,0,0,0,0,3.5003,3.5019,3.5042,3.5081,3.5097,3.5177,3.5155,3.516,3.5185,3.5183,3.5222,3.5227,3.5238,3.5295,3.5306,3.5333,3.5291,3.5439,3.5442,3.5445,3.5464,3.5469,3.5474,0,0,0,0,0,3.4997,3.5043,3.5043,3.5056,3.5127,3.5179,3.5188,3.5201,3.5187,3.5209,3.5229,3.5226,3.5323,3.5301,3.5313,3.5342,3.5437,3.5441,3.5445,3.5461,3.5468,3.5474,0,0,0,0,0,0,3.5004,3.5048,3.5049,3.5109,3.514,3.5178,3.5207,3.5208,3.5243,3.524,3.5254,3.5263,3.5316,3.5334,3.5308,3.5399,3.5378,3.5385,3.5386,3.5393,3.5399,3.5394,3.5295,0,0,0,0,0,3.5013,3.5052,3.5088,3.5138,3.5154,3.5178,3.5201,3.5209,3.5241,3.5254,3.5278,3.5308,3.5346,3.537,3.5406,3.5465,3.5474,3.5491,3.5497,3.5501,3.5507,3.554,3.5549,3.546,3.546,3.546,0,0,3.5031,3.506,3.5084,3.514,3.5165,3.5205,3.5189,3.5231,3.5261,3.526,3.5313,3.5331,3.5365,3.5422,3.5448,3.5439,3.5533,3.5506,3.5509,3.5513,3.5545,3.5554,3.5561,3.5462,3.5462,3.5462,0,0,3.5084,3.511,3.5155,3.5181,3.522,3.5236,3.5246,3.5285,3.5298,3.535,3.5351,3.5385,3.5449,3.5475,3.5496,3.5559,3.5558,3.557,3.5599,3.5632,3.5639,3.5645,3.5669,3.5677,3.5576,3.5576,3.5576,0,3.5102,3.5163,3.5178,3.5222,3.5246,3.5248,3.5294,3.5317,3.5365,3.5382,3.5371,3.5452,3.5475,3.5539,3.5555,3.5571,3.5584,3.5567,3.5637,3.5643,3.5649,3.5672,3.5681,3.5577,3.5577,3.5577,3.5577,0,3.5183,3.5226,3.5257,3.5306,3.5334,3.5378,3.5398,3.5424,3.543,3.5446,3.55,3.5528,3.5571,3.5586,3.5591,3.565,3.5643,3.5634,3.5613,3.5659,3.5681,3.569,3.5579,3.5579,3.5578,3.5578,0,0,3.5244,3.5301,3.5312,3.5335,3.5378,3.541,3.5454,3.5497,3.552,3.5552,3.559,3.5644,3.5637,3.5661,3.5668,3.5696,3.5747,3.5684,3.5685,3.5696,3.5815,3.5823,3.5833,3.5745,3.5747,3.5748,3.5812,0,3.5304,3.5384,3.5398,3.5468,3.5507,3.551,3.5548,3.5578,3.5594,3.5629,3.5647,3.5686,3.5672,3.5687,3.5715,3.5735,3.5771,3.573,3.578,3.5781,3.5773,3.5844,3.5852,3.5912,3.5821,3.5822,3.5823,0,3.5384,3.5421,3.5495,3.5534,3.5551,3.5585,3.5627,3.566,3.5694,3.5704,3.5731,3.5735,3.578,3.5756,3.5818,3.579,3.5811,3.5824,3.5826,3.5833,3.5806,3.5854,3.5931,3.594,3.5837,3.5836,3.5835,0,3.5423,3.5491,3.5545,3.5563,3.5609,3.5634,3.5654,3.5686,3.5711,3.5746,3.5763,3.5802,3.5824,3.5853,3.5868,3.5849,3.5929,3.5906,3.5939,3.5939,3.5957,3.5956,3.604,3.5968,3.5967,3.5967,3.5967,0,3.5489,3.5535,3.5563,3.5596,3.5647,3.5662,3.5712,3.5731,3.576,3.5796,3.5799,3.5832,3.5849,3.5884,3.5896,3.5946,3.5955,3.5964,3.5967,3.5965,3.5964,3.598,3.5977,3.597,3.5969,3.5969,3.5968,0,3.5542,3.5563,3.5622,3.5661,3.5672,3.5708,3.5741,3.5772,3.5788,3.5834,3.5846,3.5871,3.5913,3.593,3.5981,3.5989,3.6047,3.6046,3.6036,3.6038,3.607,3.6067,3.6169,3.6183,3.6099,3.61,3.6101,0,3.5584,3.562,3.5663,3.5688,3.571,3.575,3.5776,3.5792,3.5819,3.586,3.5887,3.593,3.5965,3.6032,3.6054,3.6093,3.6094,3.6127,3.61,3.6097,3.6096,3.6095,3.6099,3.6132,3.6133,3.6134,3.6134,0,3.5657,3.5665,3.5704,3.5747,3.5778,3.5812,3.5845,3.5865,3.5885,3.5915,3.596,3.5987,3.604,3.6082,3.6123,3.6142,3.6142,3.6142,3.6152,3.6151,3.6145,3.6151,3.6052,3.614,3.614,3.6139,3.6139,3.6139,3.5707,3.5739,3.5775,3.5818,3.5844,3.5875,3.5907,3.5928,3.5966,3.6012,3.6018,3.6065,3.6098,3.6153,3.6173,3.621,3.6202,3.6215,3.6219,3.6223,3.6226,3.6138,3.6217,3.6217,3.6217,3.6217,3.6217,0,3.5781,3.5804,3.5844,3.5891,3.5924,3.5922,3.5958,3.5986,3.6028,3.6059,3.6094,3.6145,3.6186,3.6212,3.6253,3.6277,3.6278,3.6288,3.6287,3.6292,3.623,3.6219,3.6287,3.6287,3.6287,3.6287,3.6287,3.6287,3.5824,3.5878,3.5891,3.5959,3.5981,3.603,3.605,3.6079,3.6104,3.6161,3.6196,3.6213,3.6241,3.6285,3.6322,3.6328,3.6344,3.6354,3.636,3.6303,3.6296,3.6289,3.6278,3.6357,3.6357,3.6419,3.6419,3.642]}]]